User: anonymous   Login
Location: Unspecified
(0.0000°N, 0.0000°E)
Time: 12:55:23
(UTC+00:00)
Language:

TMSAT-1 - Orbit

View from above orbital plane
View from above orbital plane
View from above satellite
View from above satellite

Ground track
Ground track

The orbit data is extracted from the following two-line orbital elements,

1 25396U 98043C   21015.58048558  .00000004  00000-0  20933-4 0  9996
2 25396  98.7318 321.7061 0003554 113.5220 246.6333 14.24570586170191
Epoch (UTC): 15 January 2021 13:55:53
Eccentricity: 0.0003554
inclination: 98.7318°
perigee height: 807 km
apogee height: 812 km
right ascension of ascending node: 321.7061°
argument of perigee: 113.5220°
revolutions per day: 14.24570586
mean anomaly at epoch: 246.6333°
orbit number at epoch: 17019

The dashed part of the orbit path shows where the satellite is in the earth's shadow,  

DLR